Location: Newark
(37.9800°N, 91.3000°W)
Time: 20:42:59
(UTC+00:00)

UWE-3 - Visible Passes

Search period start: 08 December 2019 00:00
Search period end: 18 December 2019 00:00
Orbit: 586 x 682 km, 97.6° (Epoch: 07 December)

Date Brightness Start Highest point End Pass type
(mag) Time Alt. Az. Time Alt. Az. Time Alt. Az.
08 Dec ? 00:12:28 10° SW 00:15:22 16° W 00:18:16 10° NW visible
08 Dec ? 12:01:43 10° N 12:06:05 64° WNW 12:10:17 10° SSW visible
09 Dec ? 10:48:09 10° NE 10:51:04 17° E 10:53:56 10° SE visible
09 Dec ? 12:23:37 10° N 12:27:37 35° WNW 12:31:30 10° SW visible
09 Dec ? 23:17:23 10° S 23:21:59 59° W 23:26:36 10° NNW visible
10 Dec ? 11:09:01 10° NE 11:12:52 30° E 11:16:36 10° SSE visible
10 Dec ? 23:39:28 10° SSW 23:43:42 34° W 23:47:56 10° NNW visible
11 Dec ? 11:30:18 10° NNE 11:34:35 55° E 11:38:43 10° S visible
12 Dec ? 00:02:02 10° SW 00:05:28 20° W 00:08:54 10° NW visible
12 Dec ? 11:51:52 10° N 11:56:13 82° WNW 12:00:26 10° SSW visible
13 Dec ? 00:25:42 10° WSW 00:27:19 12° W 00:28:55 10° WNW visible
13 Dec ? 10:38:58 10° ENE 10:41:06 13° E 10:43:12 10° ESE visible
13 Dec ? 12:13:40 10° N 12:17:47 44° WNW 12:21:47 10° SW visible
14 Dec ? 10:59:27 10° NE 11:02:55 24° E 11:06:18 10° SSE visible
14 Dec ? 12:35:43 10° NNW 12:39:17 26° WNW 12:42:45 10° SW visible
14 Dec ? 23:29:25 10° S 23:33:50 43° W 23:38:14 10° NNW visible
15 Dec ? 11:20:35 10° NNE 11:24:40 42° E 11:28:37 10° S visible
15 Dec ? 23:51:45 10° SSW 23:55:34 25° W 23:59:23 10° NW visible
16 Dec ? 11:42:02 10° NNE 11:46:20 78° ESE 11:50:30 10° S visible
17 Dec ? 00:14:48 10° SW 00:17:23 15° W 00:19:57 10° WNW visible
17 Dec ? 10:30:45 10° E 10:31:06 10° E 10:31:28 10° E visible
17 Dec ? 12:03:44 10° N 12:07:55 57° WNW 12:12:00 10° SSW visible
